Flag for Canada Weather past 2 weeks in Norman Wells, Northwest Territories, Canada

Now
18 °F

Light snow. Passing clouds.


Feels Like: 4 °F
Forecast: 15 / 21 °F
Wind: 14 mph from West

Location: Norman Wells

Current Time: Oct 24, 2014 at 6:05:14 AM

Latest Report: Oct 24, 2014 at 5:00 AM


Visibility: 20 mi

Pressure: 29.83 "Hg

Humidity: 93%

Dew point: 16 °F

Location of Norman WellsLocation

Historic Weather in Norman Wells — Graph

°F

Norman Wells temperature yesterday

Maximum temperature yesterday: 25 °F (at 12:00 AM)
Minimum temperature yesterday: 19 °F (at 8:00 PM)
Average temperature yesterday: 22 °F

Past Weeks' High & Low Weather Summary

 TemperatureHumidityPressure
High37 °F (Oct 10, 12:00 PM)100% (Oct 9, 8:00 AM)30.07 "Hg (Oct 9, 8:00 AM)
Low12 °F (Oct 22, 8:00 AM)65% (Oct 16, 2:00 PM)29.22 "Hg (Oct 10, 11:00 PM)
Average28 °F87%29.74 "Hg
* Reported Oct 9 4:00 AM — Oct 24 4:00 AM, Norman Wells, Weather by CustomWeather, © 2014

Note: Actual official high and low records may vary slightly from our data, if they occured in-between our weather recording intervals... More about our weather records

Advertising

Norman Wells weather history for previous 24 hours

 ConditionsComfort  
Time TempWeatherWind HumidityBarometerVisibility
4:00 AM
Oct 24
18 °FLight snow. Passing clouds.18 mph93%29.84 "Hg15 mi
3:00 AM18 °FLight snow. Overcast.18 mph93%29.84 "Hg10 mi
2:00 AM19 °FLight snow. Overcast.18 mph86%29.83 "Hg5 mi
1:00 AM19 °FLight snow. Overcast.18 mph86%29.83 "Hg4 mi
12:00 AM19 °FLight snow. Overcast.20 mph86%29.83 "Hg3 mi
11:00 PM
Oct 23
19 °FLight snow. Overcast.14 mph86%29.84 "Hg3 mi
10:00 PM19 °FLight snow. Overcast.18 mph93%29.83 "Hg4 mi
9:00 PM19 °FLight snow. Overcast.20 mph86%29.83 "Hg4 mi
8:00 PM19 °FLight snow. Overcast.21 mph93%29.83 "Hg4 mi
7:00 PM21 °FLight snow. Overcast.20 mph86%29.82 "Hg3 mi
6:00 PM21 °FLight snow. Overcast.20 mph93%29.82 "Hg3 mi
5:00 PM21 °FLight snow. Overcast.17 mph93%29.82 "Hg3 mi
4:00 PM21 °FLight snow. Overcast.20 mph93%29.81 "Hg3 mi
3:00 PM23 °FLight snow. Overcast.18 mph86%29.81 "Hg3 mi
2:00 PM23 °FLight snow. Overcast.20 mph86%29.81 "Hg3 mi
1:00 PM23 °FLight snow. Overcast.16 mph86%29.82 "Hg3 mi
12:00 PM21 °FLight snow. Mostly cloudy.13 mph93%29.82 "Hg4 mi
11:00 AM21 °FLight snow. Mostly cloudy.14 mph93%29.81 "Hg5 mi
10:00 AM21 °FLight snow. Mostly cloudy.14 mph93%29.81 "Hg4 mi
9:00 AM23 °FLight snow. Mostly cloudy.13 mph93%29.81 "Hg4 mi
8:00 AM23 °FLight snow. Overcast.12 mph93%29.80 "Hg3 mi
7:00 AM23 °FLight snow. Overcast.9 mph100%29.80 "Hg3 mi
6:00 AM25 °FLight snow. Overcast.9 mph93%29.80 "Hg3 mi
Weather by CustomWeather, © 2014

See weather overviewHow to use our weather pages